Stations météo

réclame
Mon MeteoGroup
Beauvais, France (7055): Température de l'air & dewpoint: 05.12.2017 10:00:00 - 11.12.2017 10:00:00 (CET)Beauvais, France (7055): Température de l'air 5cm: 05.12.2017 10:00:00 - 11.12.2017 10:00:00 (CET)Beauvais, France (7055): Température de l'air -20cm & Température de l'air -100cm: 05.12.2017 10:00:00 - 11.12.2017 10:00:00 (CET)Beauvais, France (7055): Vitesse du vent & gusts: 05.12.2017 10:00:00 - 11.12.2017 10:00:00 (CET)Beauvais, France (7055): Direction du vent: 05.12.2017 10:00:00 - 11.12.2017 10:00:00 (CET)Beauvais, France (7055): reduced air pressure: 05.12.2017 10:00:00 - 11.12.2017 10:00:00 (CET)Beauvais, France (7055): visibility: 05.12.2017 10:00:00 - 11.12.2017 10:00:00 (CET)Beauvais, France (7055): Ensoleillement: 05.12.2017 10:00:00 - 11.12.2017 10:00:00 (CET)Beauvais, France (7055): Quantités de précipitations: 05.12.2017 10:00:00 - 11.12.2017 10:00:00 (CET)
Date & Time tt [°C] td [°C] tt 5cm [°C] tt -20cm [°C] tt -100cm [°C] ff [km/h] ff [knt] fx [km/h] fx [knt] dd ppp [hPa] vv [km] sd [min] rr [mm]
11.12.2017 10:00:00 - - - - - - - - - - - - - -
11.12.2017 09:00:00 7,8 7,2 6,6 6,3 9,1 20 11 31 17 ESE 969,9 60 0 0,0
11.12.2017 08:00:00 6,8 6,4 6,3 6,4 9,1 11 6 47 26 SSE 970,8 8 0 5,2
11.12.2017 07:00:00 6,5 5,9 6,1 6,4 9,1 31 17 44 24 E 971,0 5 0 5,5
11.12.2017 06:00:00 6,3 5,7 5,8 6,4 9,1 28 15 44 24 E 973,3 10 0 3,0
11.12.2017 05:00:00 5,9 5,5 5,4 6,4 9,1 22 12 30 16 E 975,7 8 0 1,8
11.12.2017 04:00:00 5,7 5,1 4,8 6,4 9,1 16 9 21 12 E 977,9 8 0 0,8
11.12.2017 03:00:00 5,2 4,3 3,6 6,4 9,2 13 7 16 9 E 980,1 16 0 0,0
11.12.2017 02:00:00 4,4 3,5 1,7 6,4 9,2 9 5 11 6 E 981,2 40 0 0,0
11.12.2017 01:00:00 3,9 2,3 2,1 6,4 9,2 9 5 14 8 SE 981,3 10 0 0,0
11.12.2017 00:00:00 4,9 3,2 2,1 6,4 9,2 11 6 16 9 SSE 983,3 10 0 0,0
10.12.2017 23:00:00 5,1 3,1 2,3 6,4 9,2 11 6 18 10 SSW 982,9 60 0 0,0
10.12.2017 22:00:00 6,2 3,9 3,0 6,3 9,2 12 6 23 12 SW 982,7 60 0 0,0
10.12.2017 21:00:00 6,5 3,8 3,7 6,3 9,2 14 7 38 21 SW 983,0 60 0 0,0
10.12.2017 20:00:00 7,6 4,2 5,1 6,3 9,2 22 12 40 21 WSW 982,2 60 0 0,0
10.12.2017 19:00:00 7,7 4,6 5,3 6,3 9,2 22 12 57 31 WSW 981,7 10 0 0,0
10.12.2017 18:00:00 8,0 5,1 6,2 6,2 9,2 29 16 57 31 SW 981,2 19 0 0,2
10.12.2017 17:00:00 8,5 4,9 6,8 6,2 9,2 40 22 63 34 SW 981,1 18 0 0,0
10.12.2017 16:00:00 9,2 4,0 7,4 6,2 9,2 42 23 74 40 WSW 980,6 17 0 0,0
10.12.2017 15:00:00 10,1 4,2 8,1 6,2 9,2 45 24 76 41 WSW 980,3 17 20 0,0
10.12.2017 14:00:00 10,2 4,1 7,7 6,2 9,2 42 23 75 41 WSW 980,4 14 6 0,0
10.12.2017 13:00:00 9,3 4,3 7,5 6,2 9,2 41 22 76 41 WSW 981,0 10 27 0,0
10.12.2017 12:00:00 9,2 4,2 6,8 6,2 9,3 47 26 79 43 WSW 980,9 7 35 0,0
10.12.2017 11:00:00 6,9 5,7 3,1 6,3 9,3 27 15 46 25 SW 981,2 60 17 0,2
10.12.2017 10:00:00 3,3 2,7 1,7 6,3 9,3 19 10 41 22 S 982,2 60 0 0,2
10.12.2017 09:00:00 2,1 1,2 0,4 6,3 9,3 26 14 44 24 S 985,3 10 0 2,8
10.12.2017 08:00:00 1,2 0,5 0,2 6,4 9,3 26 14 41 22 SE 987,0 6 0 3,7
10.12.2017 07:00:00 0,6 0,0 0,2 6,4 9,3 19 11 40 22 SE 990,9 4,8 0 1,4
10.12.2017 06:00:00 1,7 0,7 1,4 6,4 9,3 26 14 40 22 SSE 994,1 7 0 0,8
10.12.2017 05:00:00 2,3 1,3 2,1 6,4 9,3 25 13 36 19 SSE 997,8 12 0 0,4
10.12.2017 04:00:00 2,6 1,4 2,4 6,4 9,3 18 10 34 18 S 1001,0 10 0 0,0
10.12.2017 03:00:00 2,8 1,6 2,4 6,4 9,3 18 10 31 17 S 1003,4 22 0 0,0
10.12.2017 02:00:00 2,6 1,4 1,7 6,4 9,4 16 9 25 14 S 1006,0 10 0 0,0
10.12.2017 01:00:00 2,6 1,1 0,6 6,4 9,4 16 9 27 15 S 1007,3 10 0 0,0
10.12.2017 00:00:00 2,1 0,6 1,2 6,4 9,3 9 5 19 10 S 1009,3 10 0 0,0
09.12.2017 23:00:00 2,5 1,0 1,8 6,4 9,4 9 5 15 8 S 1010,6 18 0 0,0
09.12.2017 22:00:00 2,1 0,6 1,4 6,4 9,4 9 5 18 10 SSW 1012,0 16 0 0,0
09.12.2017 21:00:00 1,9 0,3 1,3 6,4 9,4 9 5 21 11 SW 1012,9 10 0 0,0
09.12.2017 20:00:00 1,9 0,0 0,9 6,4 9,4 13 7 22 12 SSW 1013,7 10 0 0,0
09.12.2017 19:00:00 1,9 0,0 0,9 6,5 9,4 13 7 18 10 S 1014,5 42 0 0,0
09.12.2017 18:00:00 2,0 0,1 1,4 6,5 9,4 8 4 20 11 S 1015,2 10 0 0,0
09.12.2017 17:00:00 2,6 0,5 2,0 6,5 9,4 15 8 29 16 SSW 1016,1 49 0 0,0
09.12.2017 16:00:00 3,1 0,3 2,8 6,6 9,4 16 9 29 16 SW 1016,8 58 18 0,0
09.12.2017 15:00:00 3,4 0,3 3,5 6,6 9,4 20 11 31 17 SW 1017,5 49 22 0,0
09.12.2017 14:00:00 3,3 0,0 4,3 6,6 9,4 19 10 33 18 SW 1018,3 51 46 0,0
09.12.2017 13:00:00 3,3 -0,2 3,7 6,6 9,4 17 9 30 16 WSW 1018,8 43 60 0,0
09.12.2017 12:00:00 2,3 -0,6 1,1 6,6 9,4 18 10 29 15 WSW 1019,7 44 60 0,0
09.12.2017 11:00:00 1,0 -1,2 0,2 6,7 9,4 13 7 21 11 W 1020,1 20 60 0,0
09.12.2017 10:00:00 0,0 -2,1 -0,9 6,7 9,4 15 8 21 11 WSW 1020,2 34 42 0,0
09.12.2017 09:00:00 -0,8 -2,2 -1,9 6,7 9,4 14 7 21 12 WSW 1020,2 40 0 0,0
09.12.2017 08:00:00 -1,6 -2,9 -3,1 6,8 9,4 10 6 15 8 WSW 1019,9 49 0 0,0
09.12.2017 07:00:00 -1,6 -2,9 -2,3 6,8 9,4 12 6 16 9 W 1019,9 53 0 0,0
09.12.2017 06:00:00 -0,8 -2,1 -3,0 6,8 9,4 13 7 16 9 WSW 1019,6 10 0 0,0
09.12.2017 05:00:00 -1,7 -3,0 -3,2 6,8 9,4 8 4 11 6 W 1019,8 10 0 0,0
09.12.2017 04:00:00 -0,8 -1,9 -1,5 6,9 9,5 9 5 14 7 WSW 1019,7 59 0 0,0
09.12.2017 03:00:00 0,2 -0,9 0,2 6,9 9,4 8 4 19 10 W 1019,7 10 0 0,4
09.12.2017 02:00:00 0,2 -0,8 0,2 6,9 9,4 5 3 15 8 NW 1019,3 4,0 0 0,0
09.12.2017 01:00:00 0,7 -0,6 0,2 6,9 9,5 10 5 21 11 WSW 1019,0 60 0 0,2
09.12.2017 00:00:00 0,9 -0,4 0,1 6,9 9,4 11 6 30 16 W 1019,7 10 0 0,0
08.12.2017 23:00:00 1,2 -0,7 0,1 7,0 9,5 16 9 26 14 WSW 1019,3 54 0 0,0
08.12.2017 22:00:00 0,9 -0,9 0,1 7,0 9,4 12 7 16 9 WSW 1019,4 42 0 0,0
08.12.2017 21:00:00 1,0 -0,8 0,5 7,0 9,5 11 6 16 9 W 1019,1 10 0 0,2
08.12.2017 20:00:00 2,3 -1,0 1,3 7,0 9,5 14 8 39 21 WNW 1018,7 60 0 0,0
08.12.2017 19:00:00 1,9 -0,7 1,2 7,0 9,4 15 8 27 14 W 1018,4 10 0 0,0
08.12.2017 18:00:00 2,7 -0,6 1,5 7,0 9,4 18 10 34 18 W 1018,0 60 0 0,0
08.12.2017 17:00:00 3,1 -0,2 2,5 7,1 9,5 24 13 35 19 W 1017,4 51 27 0,0
08.12.2017 16:00:00 3,0 0,7 2,4 7,1 9,5 19 11 34 18 W 1017,1 16 6 0,4
08.12.2017 15:00:00 3,6 1,8 4,2 7,1 9,5 11 6 19 10 W 1016,9 34 15 0,0
08.12.2017 14:00:00 3,2 2,0 2,1 7,1 9,4 11 6 25 14 WSW 1016,9 20 27 0,2
08.12.2017 13:00:00 1,6 0,7 1,2 7,1 9,5 14 8 32 18 WSW 1017,2 35 0 3,2
08.12.2017 12:00:00 2,1 -0,2 1,2 7,1 9,5 24 13 41 22 NW 1017,1 2,9 23 0,6
08.12.2017 11:00:00 4,5 1,0 2,9 7,2 9,5 23 12 43 23 WSW 1016,2 22 58 0,0
08.12.2017 10:00:00 3,2 0,4 1,1 7,2 9,5 20 11 31 17 WSW 1015,9 36 42 0,0
08.12.2017 09:00:00 2,5 -0,3 0,9 7,2 9,5 17 9 38 21 WSW 1015,5 60 0 0,0
08.12.2017 08:00:00 2,8 0,8 0,8 7,2 9,5 22 12 41 22 WSW 1015,3 60 0 0,0
08.12.2017 07:00:00 2,1 0,8 0,8 7,2 9,5 18 10 53 29 SW 1014,9 60 0 0,4
08.12.2017 06:00:00 3,4 1,8 1,0 7,2 9,5 23 12 42 23 WSW 1015,3 15 0 0,0
08.12.2017 05:00:00 3,0 0,7 0,9 7,2 9,5 13 7 22 12 WSW 1015,0 41 0 0,0
08.12.2017 04:00:00 2,6 0,7 0,9 7,2 9,5 13 7 16 9 W 1015,5 20 0 0,0
08.12.2017 03:00:00 2,9 0,8 0,7 7,2 9,5 11 6 19 10 WSW 1015,1 10 0 0,0
08.12.2017 02:00:00 4,1 1,8 2,1 7,2 9,5 14 8 22 12 W 1014,9 20 0 0,0
08.12.2017 01:00:00 4,6 2,6 2,5 7,2 9,5 11 6 23 12 WSW 1014,7 18 0 0,0
08.12.2017 00:00:00 5,8 3,8 4,3 7,1 9,5 11 6 23 12 W 1014,4 18 0 0,0
07.12.2017 23:00:00 6,7 4,7 5,2 7,1 9,5 15 8 24 13 W 1014,2 19 0 0,0
07.12.2017 22:00:00 6,8 5,3 4,4 7,1 9,5 11 6 19 11 W 1013,9 10 0 0,0
07.12.2017 21:00:00 7,7 5,8 6,6 7,1 9,5 16 9 32 18 WNW 1013,5 20 0 0,0
07.12.2017 20:00:00 8,7 7,3 7,9 7,1 9,5 31 17 56 31 NW 1012,7 18 0 0,2
07.12.2017 19:00:00 9,2 8,6 7,6 7,1 9,5 22 12 41 22 WSW 1010,9 10 0 0,0
07.12.2017 18:00:00 8,1 7,3 6,9 7,1 9,5 24 13 44 24 SW 1010,8 4,7 0 0,2
07.12.2017 17:00:00 7,5 6,6 6,6 7,1 9,5 29 16 49 26 SSW 1011,3 6 0 0,8
07.12.2017 16:00:00 6,9 5,8 6,1 7,1 9,5 27 15 51 28 SSW 1011,8 10 0 0,2
07.12.2017 15:00:00 6,5 5,1 5,3 7,1 9,5 25 14 41 22 SSW 1013,3 17 0 0,0
07.12.2017 14:00:00 5,4 4,4 4,8 7,1 9,5 34 18 58 31 S 1014,2 10 0 0,2
07.12.2017 13:00:00 4,8 3,8 4,0 7,1 9,5 29 15 48 26 SSW 1015,7 6 0 0,6
07.12.2017 12:00:00 4,0 3,0 3,6 7,2 9,5 24 13 45 25 S 1017,5 5 0 0,2
07.12.2017 11:00:00 3,6 2,3 3,4 7,1 9,5 26 14 52 28 S 1018,9 14 0 0,0
07.12.2017 10:00:00 3,6 2,4 2,7 7,1 9,5 21 11 33 18 S 1019,4 10 0 0,0
07.12.2017 09:00:00 2,9 1,4 2,4 7,1 9,5 18 10 32 18 S 1020,2 10 0 0,0
07.12.2017 08:00:00 2,5 1,0 2,2 7,2 9,5 19 10 36 19 S 1020,8 9 0 0,0
07.12.2017 07:00:00 2,1 0,9 2,0 7,2 9,5 16 9 32 18 S 1021,7 9 0 0,0
07.12.2017 06:00:00 2,0 0,7 1,6 7,2 9,5 16 9 30 16 S 1022,4 9 0 0,0
07.12.2017 05:00:00 2,1 0,6 2,0 7,2 9,5 19 11 31 17 S 1023,0 8 0 0,0
07.12.2017 04:00:00 2,2 0,9 2,2 7,2 9,5 22 12 32 18 S 1023,8 8 0 0,0
07.12.2017 03:00:00 2,6 1,3 2,4 7,1 9,5 19 10 31 17 S 1024,9 10 0 0,0
07.12.2017 02:00:00 2,5 1,2 2,4 7,1 9,5 16 9 26 14 S 1025,8 10 0 0,0
07.12.2017 01:00:00 2,3 1,3 2,5 7,1 9,5 18 10 32 18 S 1026,8 7 0 0,0
07.12.2017 00:00:00 3,2 1,9 3,3 7,1 9,5 21 11 27 15 S 1027,3 8 0 0,0
06.12.2017 23:00:00 4,0 2,7 3,9 7,1 9,5 18 10 29 16 SSW 1027,9 8 0 0,0
06.12.2017 22:00:00 4,9 3,1 4,3 7,1 9,5 19 10 27 14 S 1028,3 10 0 0,0
06.12.2017 21:00:00 5,3 3,3 4,6 7,1 9,5 14 8 22 12 S 1028,8 14 0 0,0
06.12.2017 20:00:00 5,5 3,3 4,8 7,1 9,5 14 8 22 12 S 1029,4 16 0 0,0
06.12.2017 19:00:00 5,8 4,3 5,2 7,0 9,5 12 7 21 11 S 1030,0 10 0 0,0
06.12.2017 18:00:00 6,3 4,5 5,6 7,0 9,5 13 7 20 11 S 1030,4 10 0 0,0
06.12.2017 17:00:00 6,6 4,9 5,8 7,0 9,5 11 6 21 11 S 1030,9 9 0 0,0
06.12.2017 16:00:00 7,1 4,7 6,5 7,0 9,5 9 5 18 10 SSW 1031,2 10 0 0,0
06.12.2017 15:00:00 7,5 4,6 7,1 7,0 9,5 12 6 18 10 SSW 1031,7 19 0 0,0
06.12.2017 14:00:00 7,5 4,8 7,5 7,0 9,5 9 5 18 10 SSW 1032,2 18 0 0,0
06.12.2017 13:00:00 7,4 4,9 7,3 6,9 9,5 11 6 18 10 SW 1032,9 10 0 0,0
06.12.2017 12:00:00 7,4 4,7 7,1 6,9 9,5 13 7 18 10 SW 1033,5 10 0 0,0
06.12.2017 11:00:00 7,2 4,8 6,3 6,9 9,5 7 4 16 9 SSW 1034,0 26 0 0,0
06.12.2017 10:00:00 6,8 4,6 5,3 6,9 9,5 9 5 12 6 SW 1033,9 10 0 0,0
06.12.2017 09:00:00 5,9 4,4 5,1 6,9 9,5 2 1 5 3 SW 1034,2 10 0 0,0
06.12.2017 08:00:00 6,1 4,4 5,0 6,9 9,5 2 1 14 7 NNE 1034,0 26 0 0,0
06.12.2017 07:00:00 5,5 4,3 5,0 6,9 9,5 4 2 8 5 - 1034,2 10 0 0,0
06.12.2017 06:00:00 5,6 4,4 5,2 6,9 9,5 2 1 9 5 N 1034,5 10 0 0,0
06.12.2017 05:00:00 5,7 4,8 5,1 6,9 9,5 2 1 9 5 SSE 1034,8 16 0 0,0
06.12.2017 04:00:00 5,5 4,9 5,0 6,8 9,5 0 0 4 2 N 1035,1 7 0 0,0
06.12.2017 03:00:00 5,5 4,9 4,9 6,8 9,5 0 0 10 6 N 1035,5 9 0 0,0
06.12.2017 02:00:00 5,0 4,4 4,9 6,8 9,6 4 2 6 3 S 1035,8 4,2 0 0,0
06.12.2017 01:00:00 5,5 5,1 5,2 6,8 9,6 4 2 7 4 N 1036,2 2,4 0 0,0
06.12.2017 00:00:00 5,7 5,1 5,1 6,8 9,5 3 1 7 4 ESE 1036,3 2,8 0 0,0
05.12.2017 23:00:00 5,8 5,2 5,1 6,8 9,6 4 2 8 4 SSE 1036,6 2,3 0 0,0
05.12.2017 22:00:00 6,1 5,4 5,3 6,7 9,6 3 2 8 4 SSW 1036,8 2,3 0 0,0
05.12.2017 21:00:00 6,4 5,7 5,3 6,8 9,6 5 3 8 5 W 1036,9 5 0 0,0
05.12.2017 20:00:00 6,4 5,7 5,2 6,7 9,6 4 2 9 5 SW 1037,0 3,5 0 0,0
05.12.2017 19:00:00 6,5 5,6 5,2 6,7 9,6 3 1 7 4 WSW 1036,9 4,2 0 0,0
05.12.2017 18:00:00 6,7 5,8 5,6 6,7 9,6 4 2 8 5 WSW 1037,0 6 0 0,0
05.12.2017 17:00:00 6,9 6,0 6,1 6,7 9,6 6 3 9 5 SW 1037,0 6 0 0,0
05.12.2017 16:00:00 7,2 6,1 6,7 6,7 9,6 8 4 10 5 WSW 1036,9 8 0 0,0
05.12.2017 15:00:00 7,4 6,3 7,6 6,7 9,6 5 3 10 5 SW 1036,7 6 0 0,0
05.12.2017 14:00:00 7,4 6,5 8,1 6,7 9,6 5 3 14 8 SW 1037,1 6 0 0,0
05.12.2017 13:00:00 6,8 6,1 7,4 6,7 9,6 8 5 11 6 SW 1037,4 6 0 0,0
05.12.2017 12:00:00 5,2 4,9 5,5 6,7 9,6 2 1 5 3 SSW 1038,0 6 0 0,0
05.12.2017 11:00:00 3,9 3,5 4,5 6,7 9,6 0 0 5 3 N 1038,2 5 0 0,0
05.12.2017 10:00:00 3,2 2,9 3,3 6,7 9,6 0 0 5 3 N 1038,2 5 0 0,0

tt = Température de l'air
td = dewpoint
tt 5cm = Température de l'air 5cm
tt -20cm = Température de l'air -20cm
tt -100cm = Température de l'air -100cm
ff = Vitesse du vent
fx = gusts
dd = Direction du vent
ppp = reduced air pressure
vv = visibility
sd = Ensoleillement
rr = Quantités de précipitations

stations d'obs. à proximité